User: anonymous   Login
Location: Slidell
(30.2789°N, 89.7378°W)
Time: 02:23:53
(UTC-06:00)
Language:

Cosmos 2360 Rocket - Orbit

View from above orbital plane
View from above orbital plane
View from above satellite
View from above satellite

Ground track
Ground track

The orbit data is extracted from the following two-line orbital elements,

1 25407U 98045B   17022.88516003 -.00000259  00000-0 -10768-3 0  9990
2 25407  71.0124 346.7763 0005549  59.1163 301.0505 14.15755979955612
Epoch (UTC): 22 January 2017 21:14:37
Eccentricity: 0.0005549
inclination: 71.0124°
perigee height: 836 km
apogee height: 844 km
right ascension of ascending node: 346.7763°
argument of perigee: 59.1163°
revolutions per day: 14.15755979
mean anomaly at epoch: 301.0505°
orbit number at epoch: 95561

The dashed part of the orbit path shows where the satellite is in the earth's shadow,  

DLR